Погода в Мугалжаре

Погода в Мугалжаре : погода сейчас, прогноз погоды и архив. Всё, что Вы хотите узнать о погоде в Мугалжаре!

Хотите узнать прогноз погоды в Мугалжаре? Тогда Вам сюда: Погода в Мугалжаре

Поиск расширенной информации на нашем сайте:

Другие новости

Новости СМИ2

Главная страница сайта

Новости сайта

03.07.2017

Напоминаем, что на нашем специализированном сайте Метеоцентр.Азия вы можете получить высокодетализированные автоматические прогнозы погоды по пунктам России, СНГ и мира в авиационном формате (включающие направление и скорость ветра, видимость, явления погоды, количество и форму облачности, нижнюю и верхнюю границу облачности).

Рекомендуем: отзывы кровмаркет

Погода в Мугалжаре - сегодня

Время (UTC), дата Ветер
(°,м/с) 
Видим.   Явления Облачность Т
(°С)
Тd
(°С)
f(%) Тe
(°С)
Pmin
(гПа)
dP
(гПа)
Po
(мм)
O2
(г/м3)
Тmin Tmax R s Состояние
почвы
03 19.08.17 110 (В) 20000 м    ясно 
+17 +4.8 44 +17  1024.3  1.1  751  284           
06 19.08.17 110 (В) 20000 м    ясно 
+23.6 +5.9 32 +24  1024.3  1.1  734  271  +16.4         
09 19.08.17 110 (В) 20000 м    ясно 
+25.2 +4.5 26 +25  1023.8  -0.4  734  270           
12 19.08.17 110 (В) 20000 м    ясно 
+27 +3.2 22 +27  1023.5  734  269           
15 19.08.17 090 (В) 20000 м    ясно 
+24.2 +3.6 26 +24  1023.8  -0.1  734  271    +27.3       
18 19.08.17 090 (В) 20000 м    ясно 
+20 +5.1 38 +20  1025.6  734  275    +27.3       
21 19.08.17 070 (В) 20000 м    ясно 
+18 +6.1 46 +18  1026.3  0.4  735  277           
00 20.08.17 070 (В) 20000 м    ясно 
+16.2 +6.8 54 +16  1025.1  -1.4  734  278           
03 20.08.17 тихо ()   20000 м    ясно 
+19.2 +7.4 46 +19  1025.6  0.9  734  275           
06 20.08.17 090 (В) 20000 м    ясно 
+25.4 +4 25 +25  1025  0.3  735  270  +15.8         
09 20.08.17 090 (В) 20000 м    4/4 1000 м 
[Cu hum]
+28.2 +3.2 20 +28  1023.6  -0.8  734  268           
12 20.08.17 тихо ()   20000 м    9/9 1000 м 
[Cu hum]
+27.9 +6.2 25 +28  1022.7  -0.9  733  267           
15 20.08.17 тихо ()   20000 м    8/0 средняя 
[Ac trans]
+26.7 +7.1 29 +27  1021.8  -1  733  268    +28.6       
18 20.08.17 тихо ()   20000 м    9/0 верхняя 
[Ci ing]
+23.8 +6.2 32 +24  1022.3  0.1  733  271    +28.6       
21 20.08.17 тихо ()   20000 м    9/0 верхняя 
[Ci ing]
+19.2 +3.6 36 +19  1023.6  0.4  733  275           
00 21.08.17 110 (В) 20000 м    9/0 верхняя 
[Ci ing]
+18 +5 42 +19  1022  -1.1  732  276           
03 21.08.17 110 (В) 20000 м    9/0 средняя 
[Ac trans]
+19.8 +5.9 40 +21  1021.8  0.1  751  281           
06 21.08.17 200 (Ю) 20000 м    8/0 средняя 
[Ac trans]
+27 +8.2 30 +27  1020.4  -0.3  732  267  +17.8         
09 21.08.17 200 (Ю) 20000 м    8/0 средняя 
[Ac trans]
+30 +5.8 22 +30  1018.5  -1.3  731  264           
12 21.08.17 200 (Ю) 20000 м    5/5 1000 м 
[Cu hum]
+29.6 +6.1 23 +30  1016.7  -1.7  729  264           
15 21.08.17 тихо ()   20000 м    ясно 
+28 +7.7 28 +28  1016.5  -0.5  729  265    +30.5       
18 21.08.17 тихо ()   20000 м    ясно 
+24 +6.4 32 +24  1017.4  0.2  729  269    +30.5       
21 21.08.17 тихо ()   20000 м    ясно 
+21.3 +6.2 37 +21  1017.7  -0.2  729  271           
00 22.08.17 110 (В) 20000 м    ясно 
+19.2 +5.6 41 +20  1018.2  0.3  729  274           
03 22.08.17 110 (В) 20000 м    ясно 
+20.1 +6.1 40 +20  1019.2  751  281           
Время (UTC), дата Ветер
(°,м/с) 
Видим.   Явления Облачность Т
(°С)
Тd
(°С)
f(%) Тe
(°С)
Pmin
(гПа)
dP
(гПа)
Po
(мм)
O2
(г/м3)
Тmin Tmax R s Состояние
почвы

Для получения пояснительной информации подведите курсор к названию столбца.

ПОГОДА в Мугалжаре - архив

Всё, что Вы хотите узнать о погоде в Мугалжаре - удобно и подробно!

Выберите нужную дату (начиная с 1 января 2015* года) и нажмите кнопку "Найти".
Будут отображены архивные сводки погоды по пункту Мугалжар, начиная с указанной даты.


Отображать данные в формате CSV (для использования в таблицах Excel)


Внимание! Наш архив погоды предназначен исключительно для личного некоммерческого использования в познавательных целях. Если Вам необходимы официальные справки о состоянии погоды (для производственных, юридических, коммерческих и т.п. целей), обращайтесь в органы Росгидромета.

*Примечание: данная дата относится к архиву по метеостанциям СССР (Россия, СНГ, Балтия).
Архив по метеостанциям Зарубежной Европы и Азии (кроме Китая) хранится 10 дней, по другим регионам земного шара (Китай, Африка, Америка, Австралия, Океания) - 1 день.

Мугалжар - район местоположения метеостанции


Название, широта, долгота, высота метеостанции:
Мугалжар (Мугоджарская) 48.6°ш. 58.5°д. 398 м над ур. моря [Казахстан]

Дополнительная информация

В oтличие oт бoльшинства пoгoдных сайтoв мы публикуем пoдрoбную метеoинфoрмацию в детальнoм прoфессиoнальнoм фoрмате.

Характеристики температуры и влажнoсти вoздуха измеряются на высoте 2 м в тени вдали oт зданий и деревьев.
Скoрoсть ветра измеряется на высoте 10 м (на урoвне рoста челoвека скoрoсть ветра ниже в 1.5-2 раза). Если метеoстанция нахoдится в гoрoде или в лесу, тo скoрoсть ветра занижена на 2-4 м/с пo сравнению с oткрытым местoм. Скoрoсть ветра над акватoриями крупных рек и oзёр, а также на вершинах хoлмoв на 2-5 м/с выше, чем в oбычных услoвиях.
Атмoсфернoе давление в разных тoчках местнoсти мoжет значительнo oтличаться oт давления на метеoстанции, в зависимoсти oт услoвий рельефа (при пoдъёме на 10 м давление пoнижается примернo на 1 мм рт.ст.).